Regional Weather Roundup
Issued by NWS

Home | Current Version | Previous Version | Text Only | Print | Product List | Glossary Off
Versions: 1 2 3 4 5 6 7 8 9 10 11 12 13 14 15 16 17 18 19 20 21 22 23 24 25 26 27 28 29 30 31 32 33 34 35 36 37 38 39 40 41 42 43 44 45 46 47 48 49 50

000
ASUS45 KCYS 222210
RWRWY

WYOMING REGIONAL WEATHER ROUNDUP
NATIONAL WEATHER SERVICE CHEYENNE WY
400 PM MDT FRI MAY 22 2015

NOTE:  "FAIR" INDICATES FEW OR NO CLOUDS BELOW 12,000 FEET
WITH NO SIGNIFICANT WEATHER AND/OR OBSTRUCTIONS TO VISIBILITY.

WYZ001-222300-
YELLOWSTONE NATIONAL PARK

CITY           SKY/WX    TMP DP  RH WIND       PRES   REMARKS
LK YELLOWSTONE   N/A     52  33  48 E5        29.99F
W YELLOWSTONE  NOT AVBL

$$
WYZ002>013-054>058-071-098>099-222300-
NORTHERN WYOMING

CITY           SKY/WX    TMP DP  RH WIND       PRES   REMARKS
JACKSON        PTSUNNY   61  34  36 CALM      29.89F
CODY           CLOUDY    48  45  87 W10       29.94F
GREYBULL       FAIR      70  40  33 S9        29.85F
WORLAND        TSTM      57  45  64 SW5G25    29.89S
SHERIDAN       FAIR      62  43  49 SE21G35   29.93S
BUFFALO          N/A     52  44  74 SE16G23   30.00R
GILLETTE       CLOUDY    54  43  66 SE17      30.01F
HULETT         CLOUDY    59  41  51 S9        30.04F
NEWCASTLE      FAIR      55  41  58 S20       30.04F

$$
WYZ014>020-022>026-101>103-222300-
CENTRAL WYOMING

CITY           SKY/WX    TMP DP  RH WIND       PRES   REMARKS
BIG PINEY      RAIN      44  41  89 SE14      29.99R FOG
PINEDALE       CLOUDY    46  43  87 SW9       29.97F
DUBOIS         MOCLDY    50  39  66 SE18G28   29.96S
LANDER         CLOUDY    58  45  62 NE9       29.91F
RIVERTON       PTSUNNY   56  44  64 VRB5      29.93F
CASPER         CLOUDY    51  46  83 E17       29.95F
DOUGLAS        CLOUDY    51  44  77 SE20G25   30.01S

$$
WYZ021-027>030-104>119-222300-
SOUTHERN WYOMING

CITY           SKY/WX    TMP DP  RH WIND       PRES   REMARKS
EVANSTON       LGT RAIN  46  39  76 NW5       29.97R
KEMMERER       CLOUDY    46  37  71 W13       29.99S
FORT BRIDGER   RAIN      45  45 100 S8        30.00S
ROCK SPRINGS   CLOUDY    49  39  68 SW5       29.96F
DIXON          LGT RAIN  54  40  59 CALM      29.98F
RAWLINS        PTSUNNY   51  41  68 SW5       29.97F
SARATOGA       MOCLDY    52  37  58 CALM      29.98F
LARAMIE        CLOUDY    47  40  76 SE6       29.98F
CHEYENNE       CLOUDY    47  42  83 SE9       30.01
TORRINGTON     CLOUDY    48  45  89 SE14G25   30.02F
PINE BLUFFS    LGT RAIN  48  45  87 SE9       30.02F

$$


USA.gov is the U.S. government's official web portal to all federal, state and local government web resources and services.